Content
SEND FEEDBACK

Daily
Averages
Monthly
Summary
United States of America

WEST AUGUSTA, VIRGINIA


Home > North America > United States > Virginia
Elevation: 240 feet     Latitude: 38 22N     Longitude: 079 16W

WEATHER
 
SELECT A DAY
Number of Records: 456,583;   Date Range: 1/1/95 - 8/12/14
 
SHARE

PRINT THIS DATA

[ ← Previous Day ]
WEATHER ALMANAC - JANUARY 31, 2013
[ Next Day → ]
[ °C ]   °F
Weather ElementAverageHighLow
Temperature39 °F56.3 °F (12:35 am)29.8 °F (10:35 pm)
Dewpoint22.4 °F50 °F (12:55 am)11.7 °F (3:15 pm)
Humidity52.3 %83 % (12:55 am)36 % (3:15 pm)
Barometer29.68 in29.89 in (8:15 pm)29.28 in (1:35 am)
Wind Speed12.7 mph21.9 mph (2:15 pm)
Wind Gust32.2 mph (11:35 am)
Weather ElementAverage
Visibility9.9 mi
Wind DirectionWSW (243.8 °)

Weather ElementTotal
Precipitation0.07 in
Heating Degree Days22 (Base 65)
Averaged from 71 records on January 31, 2013
WEATHER CONDITIONS BREAKOUT
WIND DIRECTION BREAKOUT
WEATHER BY HOUR - JANUARY 31, 2013
[ °C ]   °F
Local TimeTemperatureDewpointHumidityBarometerVisibilityWind DirectionWind SpeedGust SpeedPrecipitationEventsConditions
12:35 AM56.3 °F49.5 °F78 %29.33 in10.0 miSSW (210°)12.7 mph16.1 mph0.01 inRainLight Rain
12:55 AM55.2 °F50.0 °F83 %29.32 in5.0 miSSW (200°)10.4 mph18.4 mph0.05 inRainRain
1:15 AM54.7 °F49.6 °F83 %29.31 in10.0 miSSW (210°)9.2 mphRainLight Rain
1:35 AM54.7 °F48.7 °F80 %29.28 in10.0 miSSW (210°)8.1 mphRainRain
1:55 AM53.6 °F48.2 °F82 %29.28 in10.0 miSSW (210°)12.7 mph18.4 mph0.01 inLight Drizzle
2:15 AM52.9 °F45.9 °F77 %29.32 in10.0 miWSW (240°)17.3 mph26.5 mphMostly Cloudy
2:35 AM52.2 °F42.8 °F70 %29.32 in10.0 miWSW (240°)17.3 mph23.0 mphClear
2:55 AM51.1 °F42.3 °F72 %29.33 in10.0 miWSW (250°)15.0 mph20.7 mphScattered Clouds
3:15 AM50.0 °F39.2 °F66 %29.35 in10.0 miWest (270°)11.5 mph26.5 mphRainLight Rain
3:35 AM48.0 °F33.6 °F57 %29.36 in10.0 miWest (270°)18.4 mph26.5 mphScattered Clouds
3:55 AM47.5 °F33.1 °F57 %29.38 in10.0 miWest (260°)17.3 mph23.0 mphMostly Cloudy
4:15 AM46.6 °F32.7 °F59 %29.40 in10.0 miWest (260°)13.8 mph19.6 mphMostly Cloudy
4:35 AM45.9 °F31.6 °F58 %29.42 in10.0 miWest (270°)16.1 mph25.3 mphMostly Cloudy
4:55 AM45.0 °F30.7 °F57 %29.45 in10.0 miWest (270°)16.1 mph27.6 mphScattered Clouds
5:15 AM42.4 °F31.5 °F65 %29.47 in10.0 miWest (260°)20.7 mph29.9 mphMostly Cloudy
5:35 AM40.8 °F30.4 °F66 %29.49 in10.0 miWSW (250°)11.5 mph18.4 mphScattered Clouds
5:55 AM41.0 °F26.1 °F55 %29.52 in10.0 miWSW (250°)13.8 mph29.9 mphScattered Clouds
6:15 AM39.7 °F25.7 °F57 %29.54 in10.0 miWest (260°)13.8 mph20.7 mphScattered Clouds
6:35 AM39.7 °F24.8 °F55 %29.56 in10.0 miWest (260°)13.8 mph21.9 mphMostly Cloudy
6:55 AM38.8 °F24.4 °F56 %29.58 in10.0 miWNW (290°)11.5 mph18.4 mphMostly Cloudy
7:15 AM38.3 °F21.4 °F51 %29.59 in10.0 miWest (270°)16.1 mph28.8 mphScattered Clouds
7:35 AM37.8 °F20.1 °F49 %29.61 in10.0 miWest (270°)11.5 mph23.0 mphClear
7:55 AM37.8 °F19.8 °F48 %29.61 in10.0 miWest (260°)16.1 mph24.2 mphClear
8:15 AM37.8 °F19.4 °F48 %29.63 in10.0 miWest (270°)12.7 mph21.9 mphClear
8:35 AM36.9 °F21.9 °F55 %29.64 in10.0 miWest (260°)10.4 mph25.3 mphScattered Clouds
8:55 AM37.4 °F17.8 °F45 %29.66 in10.0 miWest (260°)15.0 mph25.3 mphScattered Clouds
9:15 AM38.3 °F20.7 °F49 %29.66 in10.0 miWest (260°)13.8 mph21.9 mphScattered Clouds
9:35 AM38.5 °F19.8 °F47 %29.68 in10.0 miWest (260°)12.7 mph19.6 mphMostly Cloudy
9:55 AM39.0 °F19.6 °F46 %29.69 in10.0 miWSW (250°)15.0 mph24.2 mphMostly Cloudy
10:15 AM38.3 °F20.7 °F49 %29.71 in10.0 miWSW (250°)18.4 mph26.5 mphMostly Cloudy
10:35 AM39.2 °F21.2 °F49 %29.72 in10.0 miWSW (250°)13.8 mph21.9 mphMostly Cloudy
10:55 AM38.5 °F19.9 °F47 %29.73 in10.0 miWSW (250°)10.4 mph21.9 mphOvercast
11:15 AM37.9 °F19.9 °F48 %29.73 in10.0 miWSW (250°)16.1 mph20.7 mphOvercast
11:35 AM39.6 °F18.9 °F43 %29.74 in10.0 miWSW (250°)20.7 mph32.2 mphMostly Cloudy
11:55 AM39.2 °F20.3 °F47 %29.75 in10.0 miWest (270°)13.8 mph23.0 mphOvercast
12:15 PM39.2 °F18.7 °F44 %29.76 in10.0 miWest (260°)15.0 mph27.6 mphScattered Clouds
12:35 PM39.0 °F16.7 °F40 %29.74 in10.0 miWest (270°)18.4 mph31.1 mphScattered Clouds
12:55 PM39.4 °F16.3 °F39 %29.74 in10.0 miWest (260°)18.4 mph27.6 mphScattered Clouds
1:15 PM38.3 °F15.8 °F40 %29.73 in10.0 miWSW (250°)13.8 mph25.3 mphMostly Cloudy
1:35 PM39.9 °F18.5 °F42 %29.74 in10.0 miWSW (240°)18.4 mph24.2 mphMostly Cloudy
1:55 PM38.5 °F16.2 °F40 %29.74 in10.0 miWest (260°)19.6 mph26.5 mphMostly Cloudy
2:15 PM38.7 °F15.8 °F39 %29.76 in10.0 miWSW (240°)21.9 mph25.3 mphOvercast
2:35 PM37.4 °F14.7 °F40 %29.77 in10.0 miWest (270°)12.7 mph21.9 mphMostly Cloudy
2:55 PM37.6 °F14.5 °F39 %29.78 in10.0 miWSW (250°)21.9 mph31.1 mphOvercast
3:15 PM36.7 °F11.7 °F36 %29.79 in10.0 miWest (280°)15.0 mph29.9 mphOvercast
3:35 PM37.8 °F14.0 °F38 %29.79 in10.0 miWSW (250°)20.7 mph26.5 mphOvercast
3:55 PM36.5 °F12.7 °F38 %29.81 in10.0 miWSW (250°)13.8 mph29.9 mphOvercast
4:15 PM36.0 °F13.3 °F39 %29.81 in10.0 miWest (260°)16.1 mph24.2 mphOvercast
4:35 PM35.8 °F14.0 °F41 %29.82 in10.0 miWest (260°)17.3 mph25.3 mphOvercast
4:55 PM35.2 °F13.8 °F41 %29.83 in10.0 miWNW (290°)12.7 mph20.7 mphOvercast
5:15 PM34.3 °F15.6 °F46 %29.84 in10.0 miWest (270°)16.1 mph24.2 mphMostly Cloudy
5:35 PM32.9 °F20.1 °F59 %29.86 in10.0 miWest (260°)10.4 mphOvercast
5:55 PM33.1 °F18.1 °F54 %29.86 in10.0 miWest (260°)9.2 mph16.1 mphMostly Cloudy
6:15 PM33.3 °F18.1 °F54 %29.87 in10.0 miSSW (210°)6.9 mphMostly Cloudy
6:35 PM33.3 °F15.3 °F48 %29.87 in10.0 miWest (260°)9.2 mph16.1 mphMostly Cloudy
6:55 PM33.1 °F13.6 °F45 %29.87 in10.0 miWest (270°)5.8 mphMostly Cloudy
7:15 PM32.4 °F14.7 °F48 %29.88 in10.0 miWSW (250°)4.6 mphMostly Cloudy
7:35 PM32.9 °F13.6 °F45 %29.88 in10.0 miWest (270°)10.4 mph18.4 mphMostly Cloudy
7:55 PM32.7 °F14.2 °F47 %29.88 in10.0 miWest (260°)13.8 mph24.2 mphScattered Clouds
8:15 PM32.4 °F13.6 °F46 %29.89 in10.0 miWest (270°)10.4 mphScattered Clouds
8:35 PM32.0 °F14.0 °F48 %29.88 in10.0 miWSW (250°)6.9 mphMostly Cloudy
8:55 PM32.0 °F13.5 °F46 %29.88 in10.0 miWSW (240°)5.8 mphOvercast
9:15 PM32.0 °F13.8 °F47 %29.88 in10.0 miWSW (250°)8.1 mphOvercast
9:35 PM32.0 °F13.8 °F47 %29.88 in10.0 miWSW (240°)8.1 mphMostly Cloudy
9:55 PM31.8 °F14.5 °F49 %29.88 in10.0 miSW (230°)4.6 mphScattered Clouds
10:15 PM30.9 °F14.9 °F52 %29.89 in10.0 miSW (230°)4.6 mphScattered Clouds
10:35 PM29.8 °F15.8 °F56 %29.89 in10.0 miWSW (240°)4.6 mphScattered Clouds
10:55 PM31.5 °F16.2 °F53 %29.89 in10.0 miCalmOvercast
11:15 PM30.6 °F16.5 °F56 %29.88 in10.0 miSSE (160°)3.5 mphMostly Cloudy
11:35 PM30.0 °F17.4 °F59 %29.86 in10.0 miCalmOvercast
11:55 PM30.2 °F17.6 °F60 %29.86 in10.0 miSouth (180°)4.6 mphMostly Cloudy
Hourly data recorded from KSHD, located miles away from West Augusta, Virginia







STORIES FROM OUR PARTNERS